Weather reports worldwide

Advertisment
Verhnedvinsk, Belarus (26554): temperature & dewpoint: 16.02.2019 00:00:00 - 22.02.2019 00:00:00 (MSK)Verhnedvinsk, Belarus (26554): wind speed: 16.02.2019 00:00:00 - 22.02.2019 00:00:00 (MSK)Verhnedvinsk, Belarus (26554): wind direction: 16.02.2019 00:00:00 - 22.02.2019 00:00:00 (MSK)Verhnedvinsk, Belarus (26554): reduced air pressure: 16.02.2019 00:00:00 - 22.02.2019 00:00:00 (MSK)Verhnedvinsk, Belarus (26554): visibility: 16.02.2019 00:00:00 - 22.02.2019 00:00:00 (MSK)
Date & Time tt [°C] td [°C] ff [km/h] ff [kn] dd ppp [hPa] vv [km]
22.02.2019 00:00:00 - - - - - - -
21.02.2019 23:00:00 - - - - - - -
21.02.2019 22:00:00 - - - - - - -
21.02.2019 21:00:00 -6,0 -13,7 11 6 NNW 1021,7 13
21.02.2019 20:00:00 - - - - - - -
21.02.2019 19:00:00 - - - - - - -
21.02.2019 18:00:00 -3,7 -13,5 14 8 N 1019,4 15
21.02.2019 17:00:00 - - - - - - -
21.02.2019 16:00:00 - - - - - - -
21.02.2019 15:00:00 -2,7 -10,9 18 10 NNW 1017,5 15
21.02.2019 14:00:00 - - - - - - -
21.02.2019 13:00:00 - - - - - - -
21.02.2019 12:00:00 -4,5 -9,5 18 10 NW 1016,6 15
21.02.2019 11:00:00 - - - - - - -
21.02.2019 10:00:00 - - - - - - -
21.02.2019 09:00:00 -5,7 -11,2 18 10 NW 1014,4 15
21.02.2019 08:00:00 - - - - - - -
21.02.2019 07:00:00 - - - - - - -
21.02.2019 06:00:00 -4,3 -8,7 18 10 NW 1011,7 10
21.02.2019 05:00:00 - - - - - - -
21.02.2019 04:00:00 - - - - - - -
21.02.2019 03:00:00 -3,3 -7,2 22 12 NW 1009,2 6
21.02.2019 02:00:00 - - - - - - -
21.02.2019 01:00:00 - - - - - - -
21.02.2019 00:00:00 -2,1 -6,5 25 14 WNW 1006,8 12
20.02.2019 23:00:00 - - - - - - -
20.02.2019 22:00:00 - - - - - - -
20.02.2019 21:00:00 -0,8 -6,6 25 14 WNW 1004,1 15
20.02.2019 20:00:00 - - - - - - -
20.02.2019 19:00:00 - - - - - - -
20.02.2019 18:00:00 1,3 0,5 22 12 WNW 1001,1 14
20.02.2019 17:00:00 - - - - - - -
20.02.2019 16:00:00 - - - - - - -
20.02.2019 15:00:00 3,4 1,9 22 12 WSW 1000,4 12
20.02.2019 14:00:00 - - - - - - -
20.02.2019 13:00:00 - - - - - - -
20.02.2019 12:00:00 3,1 1,1 18 10 WSW 1000,8 10
20.02.2019 11:00:00 - - - - - - -
20.02.2019 10:00:00 - - - - - - -
20.02.2019 09:00:00 2,6 1,9 14 8 SW 1001,1 10
20.02.2019 08:00:00 - - - - - - -
20.02.2019 07:00:00 - - - - - - -
20.02.2019 06:00:00 3,2 2,1 11 6 WSW 1001,5 6
20.02.2019 05:00:00 - - - - - - -
20.02.2019 04:00:00 - - - - - - -
20.02.2019 03:00:00 3,2 1,6 11 6 WSW 1002,8 8
20.02.2019 02:00:00 - - - - - - -
20.02.2019 01:00:00 - - - - - - -
20.02.2019 00:00:00 3,3 1,1 14 8 SW 1003,0 10
19.02.2019 23:00:00 - - - - - - -
19.02.2019 22:00:00 - - - - - - -
19.02.2019 21:00:00 3,8 1,1 11 6 SSW 1004,4 10
19.02.2019 20:00:00 - - - - - - -
19.02.2019 19:00:00 - - - - - - -
19.02.2019 18:00:00 5,0 1,2 14 8 S 1006,2 11
19.02.2019 17:00:00 - - - - - - -
19.02.2019 16:00:00 - - - - - - -
19.02.2019 15:00:00 5,0 -0,2 14 8 S 1009,6 15
19.02.2019 14:00:00 - - - - - - -
19.02.2019 13:00:00 - - - - - - -
19.02.2019 12:00:00 2,5 -1,3 11 6 SSW 1013,7 15
19.02.2019 11:00:00 - - - - - - -
19.02.2019 10:00:00 - - - - - - -
19.02.2019 09:00:00 -1,6 -3,6 11 6 S 1016,1 14
19.02.2019 08:00:00 - - - - - - -
19.02.2019 07:00:00 - - - - - - -
19.02.2019 06:00:00 -0,8 -3,3 11 6 SSW 1018,0 15
19.02.2019 05:00:00 - - - - - - -
19.02.2019 04:00:00 - - - - - - -
19.02.2019 03:00:00 -0,8 -4,1 11 6 SSW 1020,0 15
19.02.2019 02:00:00 - - - - - - -
19.02.2019 01:00:00 - - - - - - -
19.02.2019 00:00:00 -1,5 -7,0 7 4 S 1021,7 15
18.02.2019 23:00:00 - - - - - - -
18.02.2019 22:00:00 - - - - - - -
18.02.2019 21:00:00 -1,3 -7,2 7 4 S 1022,7 15
18.02.2019 20:00:00 - - - - - - -
18.02.2019 19:00:00 - - - - - - -
18.02.2019 18:00:00 2,1 -7,8 4 2 SSE 1023,5 15
18.02.2019 17:00:00 - - - - - - -
18.02.2019 16:00:00 - - - - - - -
18.02.2019 15:00:00 2,4 -8,2 4 2 W 1024,8 15
18.02.2019 14:00:00 - - - - - - -
18.02.2019 13:00:00 - - - - - - -
18.02.2019 12:00:00 -0,7 -4,1 4 2 NW 1025,8 15
18.02.2019 11:00:00 - - - - - - -
18.02.2019 10:00:00 - - - - - - -
18.02.2019 09:00:00 -4,7 -5,2 4 2 W 1024,7 10
18.02.2019 08:00:00 - - - - - - -
18.02.2019 07:00:00 - - - - - - -
18.02.2019 06:00:00 -4,4 -5,5 7 4 W 1023,4 10
18.02.2019 05:00:00 - - - - - - -
18.02.2019 04:00:00 - - - - - - -
18.02.2019 03:00:00 -3,0 -4,8 4 2 WNW 1021,8 10
18.02.2019 02:00:00 - - - - - - -
18.02.2019 01:00:00 - - - - - - -
18.02.2019 00:00:00 -0,9 -4,0 7 4 NW 1020,0 15
17.02.2019 23:00:00 - - - - - - -
17.02.2019 22:00:00 - - - - - - -
17.02.2019 21:00:00 1,1 -3,9 11 6 NW 1018,1 15
17.02.2019 20:00:00 - - - - - - -
17.02.2019 19:00:00 - - - - - - -
17.02.2019 18:00:00 3,7 -3,3 18 10 WNW 1015,9 15
17.02.2019 17:00:00 - - - - - - -
17.02.2019 16:00:00 - - - - - - -
17.02.2019 15:00:00 4,6 -2,9 18 10 WNW 1014,1 15
17.02.2019 14:00:00 - - - - - - -
17.02.2019 13:00:00 - - - - - - -
17.02.2019 12:00:00 3,8 -0,7 18 10 WNW 1013,4 12
17.02.2019 11:00:00 - - - - - - -
17.02.2019 10:00:00 - - - - - - -
17.02.2019 09:00:00 2,8 0,9 14 8 WNW 1011,7 10
17.02.2019 08:00:00 - - - - - - -
17.02.2019 07:00:00 - - - - - - -
17.02.2019 06:00:00 2,8 0,3 14 8 W 1010,6 10
17.02.2019 05:00:00 - - - - - - -
17.02.2019 04:00:00 - - - - - - -
17.02.2019 03:00:00 2,7 0,2 14 8 WSW 1010,8 12
17.02.2019 02:00:00 - - - - - - -
17.02.2019 01:00:00 - - - - - - -
17.02.2019 00:00:00 2,7 0,1 18 10 WSW 1012,8 12
16.02.2019 23:00:00 - - - - - - -
16.02.2019 22:00:00 - - - - - - -
16.02.2019 21:00:00 3,0 -0,7 14 8 WSW 1015,1 15
16.02.2019 20:00:00 - - - - - - -
16.02.2019 19:00:00 - - - - - - -
16.02.2019 18:00:00 5,0 -0,7 11 6 SW 1017,1 15
16.02.2019 17:00:00 - - - - - - -
16.02.2019 16:00:00 - - - - - - -
16.02.2019 15:00:00 4,7 0,3 14 8 WSW 1019,1 15
16.02.2019 14:00:00 - - - - - - -
16.02.2019 13:00:00 - - - - - - -
16.02.2019 12:00:00 2,0 0,4 14 8 WSW 1021,0 15
16.02.2019 11:00:00 - - - - - - -
16.02.2019 10:00:00 - - - - - - -
16.02.2019 09:00:00 1,4 1,4 14 8 W 1021,1 10
16.02.2019 08:00:00 - - - - - - -
16.02.2019 07:00:00 - - - - - - -
16.02.2019 06:00:00 1,3 1,3 11 6 W 1021,5 2,4
16.02.2019 05:00:00 - - - - - - -
16.02.2019 04:00:00 - - - - - - -
16.02.2019 03:00:00 1,7 1,7 11 6 W 1022,7 4,0
16.02.2019 02:00:00 - - - - - - -
16.02.2019 01:00:00 - - - - - - -
16.02.2019 00:00:00 1,8 1,8 11 6 W 1023,1 5

tt = temperature
td = dewpoint
ff = wind speed
dd = wind direction
ppp = reduced air pressure
vv = visibility

Next stations